FW9446 Weather Reports


time (UTC)temp
F
wind
direction
speed
knots
gust
knots
rain 1hr
in
rain 24hr
in
rain mn
in
humidity
%
barometer
mb
20260510060558 55 0 0.0 0.0 0.00 0.00 0.00 97 1014.4
20260510055558 56 0 0.0 0.0 0.00 0.00 0.00 97 1014.3
20260510055058 56 0 0.0 0.0 0.00 0.00 0.00 96 1014.3
20260510054601 56 0 0.0 0.0 0.00 0.00 0.00 96 1014.4
20260510054057 56 0 0.0 0.0 0.00 0.00 0.00 97 1014.6
20260510053602 56 0 0.0 0.0 0.00 0.00 0.00 97 1014.4
20260510053057 56 0 0.0 0.0 0.00 0.00 0.00 96 1014.5
20260510052558 56 0 0.0 0.0 0.00 0.00 0.00 96 1014.4
20260510052058 56 0 0.0 0.0 0.00 0.00 0.00 96 1014.5
20260510051558 56 0 0.0 0.0 0.00 0.00 0.00 96 1014.4
20260510051100 56 0 0.0 0.0 0.00 0.00 0.00 96 1014.5
20260510050557 57 0 0.0 0.0 0.00 0.00 0.00 96 1014.7
20260510050059 57 0 0.0 0.0 0.00 0.00 0.00 96 1014.6
20260510045601 57 0 0.0 0.0 0.00 0.00 0.00 96 1014.7
20260510045058 57 0 0.0 0.0 0.00 0.00 0.00 96 1014.7
20260510044611 57 0 0.0 0.0 0.00 0.00 0.00 96 1014.7
20260510044100 57 0 0.0 0.0 0.00 0.00 0.00 96 1014.8
20260510043558 57 0 0.0 0.0 0.00 0.00 0.00 96 1014.8
20260510043106 58 0 0.0 0.0 0.00 0.00 0.00 96 1014.7
20260510042558 58 0 0.0 0.0 0.00 0.00 0.00 96 1014.7
20260510042102 58 0 0.0 0.0 0.00 0.00 0.00 96 1014.8
20260510041600 58 0 0.0 0.0 0.00 0.00 0.00 95 1014.7
20260510041058 58 0 0.0 0.0 0.00 0.00 0.00 95 1014.7
20260510040558 58 0 0.0 0.0 0.00 0.00 0.00 96 1014.7
20260510040059 58 0 0.0 0.0 0.00 0.00 0.00 95 1014.6
20260510035558 58 0 0.0 0.0 0.00 0.00 0.00 95 1014.6
20260510035058 59 0 0.0 0.0 0.00 0.00 0.00 95 1014.6
20260510034559 59 0 0.0 0.0 0.00 0.00 0.00 95 1014.6
20260510034058 59 0 0.0 0.0 0.00 0.00 0.00 95 1014.5
20260510033601 59 0 0.0 0.0 0.00 0.00 0.00 95 1014.5
20260510033121 59 0 0.0 0.0 0.00 0.00 0.00 95 1014.5
20260510032602 59 0 0.0 0.0 0.00 0.00 0.00 95 1014.4
20260510032058 60 0 0.0 0.0 0.00 0.00 0.00 94 1014.5
20260510031630 60 0 0.0 0.0 0.00 0.00 0.00 94 1014.4
20260510031100 60 0 0.0 0.0 0.00 0.00 0.00 94 1014.5
20260510030557 60 0 0.0 0.0 0.00 0.00 0.00 94 1014.4
20260510025558 60 0 0.0 0.0 0.00 0.00 0.00 94 1014.3
20260510025058 61 0 0.0 0.0 0.00 0.00 0.00 93 1014.3
20260510024557 61 0 0.0 0.0 0.00 0.00 0.00 93 1014.3
20260510024101 61 0 0.0 0.0 0.00 0.00 0.00 93 1014.1
20260510023558 61 0 0.0 0.0 0.00 0.00 0.00 93 1014.1
20260510023059 61 0 0.0 0.0 0.00 0.00 0.00 93 1014.1
20260510022558 61 0 0.0 0.0 0.00 0.00 0.00 92 1014.0
20260510022058 62 0 0.0 0.0 0.00 0.00 0.00 92 1014.0
20260510021557 62 0 0.0 0.0 0.00 0.00 0.00 92 1014.1
20260510021100 62 0 0.0 0.0 0.00 0.00 0.00 92 1014.0
20260510020558 62 0 0.0 0.0 0.00 0.00 0.00 91 1013.9
20260510020056 62 0 0.0 0.0 0.00 0.00 0.00 91 1013.8
20260510015600 62 0 0.0 0.0 0.00 0.00 0.00 91 1013.8
20260510015059 63 0 0.0 0.0 0.00 0.00 0.00 90 1013.7
20260510014608 63 0 0.0 0.0 0.00 0.00 0.00 90 1013.7
20260510014058 63 0 0.0 0.0 0.00 0.00 0.00 90 1013.6
20260510013559 63 0 0.0 0.0 0.00 0.00 0.00 89 1013.6
20260510013058 64 0 0.0 0.0 0.00 0.00 0.00 89 1013.5
20260510012558 64 0 0.0 0.0 0.00 0.00 0.00 88 1013.5
20260510012059 64 0 0.0 0.0 0.00 0.00 0.00 88 1013.4
20260510011601 65 0 0.0 0.0 0.00 0.00 0.00 87 1013.2
20260510011101 65 0 0.0 0.0 0.00 0.00 0.00 87 1013.2
20260510010558 65 0 0.0 0.0 0.00 0.00 0.00 86 1013.1
20260510005558 66 0 0.0 0.0 0.00 0.00 0.00 86 1012.9
20260510005057 67 0 0.0 0.0 0.00 0.00 0.00 85 1012.8
20260510004559 67 0 0.0 0.0 0.00 0.00 0.00 85 1012.8
20260510004058 68 0 0.0 0.0 0.00 0.00 0.00 85 1012.8
20260510003558 68 0 0.0 0.0 0.00 0.00 0.00 84 1012.7
20260510003103 68 0 0.0 0.0 0.00 0.00 0.00 84 1012.5
20260510002558 69 0 0.0 0.0 0.00 0.00 0.00 84 1012.5
20260510002057 69 0 0.0 0.9 0.00 0.00 0.00 84 1012.4
20260510001557 69 0 0.0 4.3 0.00 0.00 0.00 83 1012.3
20260510001058 69 0 0.0 4.3 0.00 0.00 0.00 82 1012.1
20260510000601 69 148 0.0 3.5 0.00 0.00 0.00 79 1012.1
20260510000100 70 0 0.0 0.9 0.00 0.00 0.00 83 1012.0
20260509235600 70 0 0.0 0.9 0.00 0.00 0.00 83 1012.0
20260509235058 70 0 0.0 0.9 0.00 0.00 0.00 82 1012.2
20260509234611 70 0 0.0 0.9 0.00 0.00 0.00 82 1012.1
20260509234057 70 0 0.0 0.0 0.00 0.00 0.00 81 1012.1
20260509233601 71 0 0.0 0.9 0.00 0.00 0.00 80 1012.0
20260509233056 71 0 0.0 0.9 0.00 0.00 0.00 81 1011.8
20260509232558 71 0 0.0 1.7 0.00 0.00 0.00 80 1011.9
20260509232058 71 0 0.0 1.7 0.00 0.00 0.00 80 1011.7
20260509231557 71 200 0.0 3.5 0.00 0.00 0.00 80 1011.7
20260509231057 71 0 0.0 3.5 0.00 0.00 0.00 79 1011.8
20260509230558 71 0 0.0 4.3 0.00 0.00 0.00 80 1011.7
20260509230106 71 277 0.0 4.3 0.00 0.00 0.00 78 1011.7
20260509225557 72 240 0.0 3.5 0.00 0.00 0.00 78 1011.7
20260509225057 72 0 0.9 3.5 0.00 0.00 0.00 78 1011.7
20260509224557 72 0 0.0 3.5 0.00 0.00 0.00 77 1011.7
20260509224058 72 250 0.0 3.5 0.00 0.00 0.00 77 1011.7
20260509223558 72 0 0.0 3.5 0.00 0.00 0.00 77 1011.7
20260509223100 73 230 0.9 4.3 0.00 0.00 0.00 76 1011.7
20260509222559 73 0 0.0 4.3 0.00 0.00 0.00 76 1011.6
20260509222057 73 249 0.0 2.6 0.00 0.00 0.00 75 1011.5
20260509221558 74 0 0.0 2.6 0.00 0.00 0.00 76 1011.5
20260509221059 74 151 0.0 3.5 0.00 0.00 0.00 77 1011.4
20260509220557 74 0 0.9 3.5 0.00 0.00 0.00 74 1011.3
20260509220103 74 229 0.0 3.5 0.00 0.00 0.00 75 1011.2
20260509215558 74 0 0.9 3.5 0.00 0.00 0.00 75 1011.2
20260509215058 74 0 0.0 4.3 0.00 0.00 0.00 74 1011.2
20260509214558 74 0 0.9 4.3 0.00 0.00 0.00 73 1011.2
20260509214058 74 200 0.9 5.2 0.00 0.00 0.00 74 1011.2
20260509213558 74 246 0.0 5.2 0.00 0.00 0.00 73 1011.3
20260509213106 75 242 0.0 4.3 0.00 0.00 0.00 73 1011.3
20260509212557 75 0 0.0 4.3 0.00 0.00 0.00 73 1011.3
20260509212057 75 69 0.0 3.5 0.00 0.00 0.00 73 1011.3
20260509211604 75 0 0.0 3.5 0.00 0.00 0.00 73 1011.4
20260509211057 75 0 0.9 3.5 0.00 0.00 0.00 73 1011.3
20260509210558 75 312 0.0 2.6 0.00 0.00 0.00 70 1011.4
20260509205559 75 0 0.0 3.5 0.00 0.00 0.00 68 1011.3
20260509205101 76 352 0.0 2.6 0.00 0.00 0.00 71 1011.3
20260509204604 75 0 0.0 3.5 0.00 0.00 0.00 69 1011.3
20260509204058 75 307 0.0 3.5 0.00 0.00 0.00 71 1011.2
20260509203557 75 0 0.0 2.6 0.00 0.00 0.00 71 1011.1
20260509203101 75 0 0.0 2.6 0.00 0.00 0.00 69 1010.8
20260509202558 75 0 0.0 2.6 0.00 0.00 0.00 72 1011.0
20260509202058 75 0 0.0 0.9 0.00 0.00 0.00 72 1010.8
20260509201601 75 0 0.0 2.6 0.00 0.00 0.00 72 1010.9
20260509201057 75 0 0.0 2.6 0.00 0.00 0.00 68 1010.9
20260509200557 75 0 0.0 0.9 0.00 0.00 0.00 71 1011.0
20260509200057 75 0 0.0 4.3 0.00 0.00 0.00 72 1010.9
20260509195558 75 0 0.0 4.3 0.00 0.00 0.00 68 1011.1
20260509195057 76 153 0.0 3.5 0.00 0.00 0.00 64 1011.2
20260509194558 76 0 0.0 3.5 0.00 0.00 0.00 68 1011.3
20260509194101 76 210 0.0 1.7 0.00 0.00 0.00 66 1011.3
20260509193557 75 322 0.0 5.2 0.00 0.00 0.00 70 1011.3
20260509193100 75 0 0.0 5.2 0.00 0.00 0.00 65 1011.4
20260509192557 75 174 0.0 4.3 0.00 0.00 0.00 67 1011.4
20260509192057 75 303 0.9 5.2 0.00 0.00 0.00 65 1011.5
20260509191609 75 0 0.9 5.2 0.00 0.00 0.00 65 1011.5
20260509191100 75 123 0.0 4.3 0.00 0.00 0.00 70 1011.5
20260509190557 75 130 0.9 4.3 0.00 0.00 0.00 65 1011.5
20260509190106 75 83 0.0 4.3 0.00 0.00 0.00 66 1011.6
20260509185558 75 0 0.9 4.3 0.00 0.00 0.00 63 1011.7
20260509185058 75 315 0.0 5.2 0.00 0.00 0.00 66 1011.8
20260509184558 75 0 1.7 5.2 0.00 0.00 0.00 63 1011.8
20260509184058 75 0 0.9 5.2 0.00 0.00 0.00 67 1011.9
20260509183557 75 80 0.0 7.0 0.00 0.00 0.00 67 1011.8
20260509183057 75 0 0.9 7.0 0.00 0.00 0.00 64 1011.7
20260509182559 75 352 1.7 7.0 0.00 0.00 0.00 62 1011.8
20260509182057 75 167 0.9 4.3 0.00 0.00 0.00 64 1011.9
20260509181604 75 0 0.0 7.0 0.00 0.00 0.00 65 1011.9
20260509181058 75 0 0.0 8.7 0.00 0.00 0.00 65 1011.8
20260509180558 75 209 2.6 8.7 0.00 0.00 0.00 65 1011.8
20260509180100 75 345 0.9 4.3 0.00 0.00 0.00 64 1011.7
20260509175558 74 0 0.0 2.6 0.00 0.00 0.00 69 1011.7
20260509175058 74 166 0.0 3.5 0.00 0.00 0.00 66 1011.6
20260509174604 74 0 0.0 3.5 0.00 0.00 0.00 69 1011.7
20260509174058 74 0 0.0 2.6 0.00 0.00 0.00 67 1011.5
20260509173557 74 0 0.0 2.6 0.00 0.00 0.00 66 1011.7
20260509173114 74 0 0.0 2.6 0.00 0.00 0.00 68 1012.0
20260509172557 73 146 0.0 2.6 0.00 0.00 0.00 68 1012.0
20260509172058 73 0 1.7 4.3 0.00 0.00 0.00 66 1012.2
20260509171604 73 0 0.0 7.0 0.00 0.00 0.00 68 1012.4
20260509171058 73 0 0.0 7.8 0.00 0.00 0.00 67 1012.4
20260509170600 73 190 2.6 7.8 0.00 0.00 0.00 65 1012.4
20260509170100 73 0 0.0 2.6 0.00 0.00 0.00 74 1012.5
20260509165557 72 321 0.0 3.5 0.00 0.00 0.00 71 1012.5
20260509165100 71 0 0.9 5.2 0.00 0.00 0.00 69 1012.5
20260509164557 71 0 0.0 5.2 0.00 0.00 0.00 70 1012.7
20260509164101 71 233 0.9 4.3 0.00 0.00 0.00 73 1012.6
20260509163600 71 250 0.9 4.3 0.00 0.00 0.00 71 1012.8
20260509163108 71 279 0.9 3.5 0.00 0.00 0.00 73 1012.8
20260509162558 71 0 0.0 4.3 0.00 0.00 0.00 74 1012.8
20260509162058 70 319 0.9 4.3 0.00 0.00 0.00 75 1012.8
20260509161606 69 0 0.0 4.3 0.00 0.00 0.00 74 1012.8
20260509161058 69 243 1.7 4.3 0.00 0.00 0.00 75 1012.7
20260509160557 69 240 0.0 3.5 0.00 0.00 0.00 78 1012.9
20260509160100 69 86 0.0 4.3 0.00 0.00 0.00 76 1013.0
20260509155558 69 115 0.9 4.3 0.00 0.00 0.00 75 1013.1
20260509155101 68 0 0.9 7.0 0.00 0.00 0.00 78 1013.1
20260509154607 67 0 0.0 7.0 0.00 0.00 0.00 78 1013.1
20260509154056 67 333 1.7 4.3 0.00 0.00 0.00 79 1013.2
20260509153602 67 0 0.9 5.2 0.00 0.00 0.00 79 1013.4
20260509153058 67 0 0.9 5.2 0.00 0.00 0.00 79 1013.4
20260509152600 66 157 0.0 3.5 0.00 0.00 0.00 81 1013.2
20260509152056 66 323 0.0 4.3 0.00 0.00 0.00 82 1013.3
20260509151602 66 146 0.0 4.3 0.00 0.00 0.00 83 1013.3
20260509151058 65 0 0.0 4.3 0.00 0.00 0.00 82 1013.3
20260509150557 65 316 0.0 2.6 0.00 0.00 0.00 86 1013.3
20260509150057 65 0 0.9 3.5 0.00 0.00 0.00 82 1013.2
20260509145558 64 0 0.9 3.5 0.00 0.00 0.00 84 1013.4
20260509145057 64 0 0.0 3.5 0.00 0.00 0.00 84 1013.3
20260509144611 64 0 0.9 6.1 0.00 0.00 0.00 83 1013.3
20260509144057 64 0 1.7 6.1 0.00 0.00 0.00 84 1013.4
20260509143557 64 0 0.0 4.3 0.00 0.00 0.00 84 1013.4
20260509143059 64 315 0.0 5.2 0.00 0.00 0.00 84 1013.5
20260509142611 64 251 0.0 5.2 0.00 0.00 0.00 85 1013.2
20260509142057 64 99 0.9 4.3 0.00 0.00 0.00 84 1012.9
20260509141559 63 0 0.0 3.5 0.00 0.00 0.00 85 1012.8
20260509141057 63 0 0.0 3.5 0.00 0.00 0.00 87 1012.6
20260509140556 63 151 0.0 3.5 0.00 0.00 0.00 86 1012.7
20260509140116 62 0 0.9 3.5 0.00 0.00 0.00 87 1012.6
20260509135601 62 0 0.0 1.7 0.00 0.00 0.00 88 1012.6
20260509135058 62 127 0.0 1.7 0.00 0.00 0.00 90 1012.5
20260509134558 61 0 0.0 0.9 0.00 0.00 0.00 90 1012.3
20260509134057 61 0 0.0 0.9 0.00 0.00 0.00 92 1012.5
20260509133558 60 0 0.0 0.9 0.00 0.00 0.00 92 1012.5
20260509133105 60 0 0.0 0.0 0.00 0.00 0.00 94 1012.5
20260509132558 60 0 0.0 0.9 0.00 0.00 0.00 94 1012.4
20260509132058 59 0 0.0 0.9 0.00 0.00 0.00 95 1012.5
20260509131602 59 0 0.0 0.9 0.00 0.00 0.00 95 1012.5
20260509131101 59 0 0.0 0.0 0.00 0.00 0.00 97 1012.6
20260509130557 58 0 0.0 0.0 0.00 0.00 0.00 97 1012.7
20260509130106 58 0 0.0 0.0 0.00 0.00 0.00 98 1012.8
20260509125556 57 0 0.0 0.0 0.00 0.00 0.00 98 1012.7
20260509125057 57 0 0.0 0.0 0.00 0.00 0.00 98 1012.8
20260509124606 57 0 0.0 0.0 0.00 0.00 0.00 98 1012.8
20260509124058 56 0 0.0 0.0 0.00 0.00 0.00 98 1012.8
20260509123557 56 0 0.0 0.0 0.00 0.00 0.00 98 1012.8
20260509123058 56 0 0.0 0.0 0.00 0.00 0.00 98 1012.8
20260509122556 55 0 0.0 0.0 0.00 0.00 0.00 98 1012.8
20260509122058 55 0 0.0 0.0 0.00 0.00 0.00 98 1012.7
20260509121609 55 0 0.0 0.0 0.00 0.00 0.00 98 1012.6
20260509121058 55 0 0.0 0.0 0.00 0.00 0.00 98 1012.5
20260509120558 55 0 0.0 0.0 0.00 0.00 0.00 98 1012.4
20260509120059 55 0 0.0 0.0 0.00 0.00 0.00 98 1012.5
20260509115557 54 0 0.0 0.0 0.00 0.00 0.00 98 1012.5
20260509115100 54 0 0.0 0.0 0.00 0.00 0.00 98 1012.5
20260509114559 54 0 0.0 0.0 0.00 0.00 0.00 98 1012.4
20260509114057 54 0 0.0 0.9 0.00 0.00 0.00 98 1012.4
20260509113559 54 0 0.0 0.9 0.00 0.00 0.00 98 1012.2
20260509113101 54 0 0.0 0.9 0.00 0.00 0.00 98 1012.4
20260509112601 54 0 0.0 0.0 0.00 0.00 0.00 98 1012.3
20260509112057 53 0 0.0 0.0 0.00 0.00 0.00 98 1012.2
20260509111607 53 0 0.0 0.0 0.00 0.00 0.00 98 1012.3
20260509111058 53 0 0.0 0.0 0.00 0.00 0.00 98 1012.2
20260509110557 53 0 0.0 0.0 0.00 0.00 0.00 98 1012.2
20260509110059 53 0 0.0 0.0 0.00 0.00 0.00 98 1012.1
20260509105556 53 0 0.0 0.0 0.00 0.00 0.00 98 1012.3
20260509105057 53 0 0.0 0.0 0.00 0.00 0.00 98 1012.2
20260509104559 53 0 0.0 0.0 0.00 0.00 0.00 98 1012.2
20260509104058 52 0 0.0 0.0 0.00 0.00 0.00 98 1012.2
20260509103559 52 0 0.0 0.0 0.00 0.00 0.00 98 1012.0
20260509103104 52 0 0.0 0.0 0.00 0.00 0.00 98 1012.1
20260509102559 52 0 0.0 0.0 0.00 0.00 0.00 98 1012.0
20260509102058 52 0 0.0 0.0 0.00 0.00 0.00 98 1012.0
20260509101600 52 0 0.0 0.0 0.00 0.00 0.00 98 1012.1
20260509101057 52 0 0.0 0.0 0.00 0.00 0.00 97 1012.1
20260509100557 52 0 0.0 0.0 0.00 0.00 0.00 97 1012.0
20260509100104 52 0 0.0 0.0 0.00 0.00 0.00 97 1012.1
20260509095600 52 0 0.0 0.0 0.00 0.00 0.00 97 1012.1
20260509095057 52 0 0.0 0.0 0.00 0.00 0.00 97 1012.0
20260509094559 52 0 0.0 0.0 0.00 0.00 0.00 97 1011.9
20260509094057 52 0 0.0 0.0 0.00 0.00 0.00 97 1011.9
20260509093557 52 0 0.0 0.0 0.00 0.00 0.00 97 1012.1
20260509093100 52 0 0.0 0.0 0.00 0.00 0.00 98 1012.1
20260509092556 52 0 0.0 0.0 0.00 0.00 0.00 98 1012.1
20260509092056 52 0 0.0 0.0 0.00 0.00 0.00 98 1012.0
20260509091558 51 0 0.0 0.0 0.00 0.00 0.00 98 1012.0
20260509091058 51 0 0.0 0.0 0.00 0.00 0.00 98 1012.3
20260509090557 51 0 0.0 0.0 0.00 0.00 0.00 98 1012.3
20260509090106 51 0 0.0 0.0 0.00 0.00 0.00 98 1012.6
20260509085557 51 0 0.0 0.0 0.00 0.00 0.00 98 1012.7
20260509085059 51 0 0.0 0.0 0.00 0.00 0.00 98 1012.9
20260509084603 51 0 0.0 0.0 0.00 0.00 0.00 98 1012.8
20260509084057 50 0 0.0 0.0 0.00 0.00 0.00 98 1012.8
20260509083556 50 0 0.0 0.0 0.00 0.00 0.00 98 1012.7
20260509083101 50 0 0.0 0.0 0.00 0.00 0.00 98 1012.6
20260509082556 50 0 0.0 0.0 0.00 0.00 0.00 98 1012.6
20260509082100 50 0 0.0 0.0 0.00 0.00 0.00 98 1012.7
20260509081558 49 0 0.0 0.0 0.00 0.00 0.00 97 1012.6
20260509081058 49 0 0.0 0.0 0.00 0.00 0.00 97 1012.4
20260509080557 49 0 0.0 0.0 0.00 0.00 0.00 97 1012.4
20260509075557 49 0 0.0 0.0 0.00 0.00 0.00 97 1012.4
20260509075059 49 0 0.0 0.0 0.00 0.00 0.00 97 1012.2
20260509074555 49 0 0.0 0.0 0.00 0.00 0.00 97 1012.2
20260509074058 48 0 0.0 0.0 0.00 0.00 0.00 96 1012.2
20260509073557 48 0 0.0 0.0 0.00 0.00 0.00 96 1012.2
20260509073058 49 0 0.0 0.0 0.00 0.00 0.00 96 1012.0
20260509072600 49 0 0.0 0.0 0.00 0.00 0.00 96 1012.0
20260509072057 49 0 0.0 0.0 0.00 0.00 0.00 96 1011.9
20260509071556 49 0 0.0 0.0 0.00 0.00 0.00 96 1011.9
20260509071057 49 0 0.0 0.0 0.00 0.00 0.00 96 1012.0
20260509070557 49 0 0.0 0.0 0.00 0.00 0.00 96 1012.2
20260509070057 49 0 0.0 0.0 0.00 0.00 0.00 96 1012.3
20260509065556 49 0 0.0 0.0 0.00 0.00 0.00 96 1012.4
20260509065056 49 0 0.0 0.0 0.00 0.00 0.00 96 1012.5
20260509064557 49 0 0.0 0.0 0.00 0.00 0.00 96 1012.4
20260509064058 49 0 0.0 0.0 0.00 0.00 0.00 96 1012.4
20260509063557 49 0 0.0 0.0 0.00 0.00 0.00 96 1012.4
20260509063104 49 0 0.0 0.0 0.00 0.00 0.00 96 1012.4
20260509062557 49 0 0.0 0.0 0.00 0.00 0.00 96 1012.5
20260509062057 49 0 0.0 0.0 0.00 0.00 0.00 96 1012.7
20260509061557 49 0 0.0 0.0 0.00 0.00 0.00 96 1012.6
20260509061057 49 0 0.0 0.0 0.00 0.00 0.00 96 1012.7